AFL1434 UUEE-USCM

Flight info

Callsign AFL1434
Flight time N/A
Altitude 37000
Route KOGOM3J KOGOM L94 EKPIR M864 INKEB L94 UNORO T788 NAMUD L994 BATAL BATAL1G
Aircraft A320/M-SDE3FGHIRWY/LB1

Departure

Time 2026-04-30 18:20
Airport Sheremetyevo International Airport (UUEE)

Arrival

Time N/A
Airport Magnitogorsk International Airport (USCM)
Time Latitude Longitude Altitude Speed Heading
2026-04-30 17:55 55.97921 37.41898 639 ft 0 kts 255°
2026-04-30 18:11 55.97934 37.41989 641 ft 4 kts 246°
2026-04-30 18:12 55.97947 37.42015 642 ft 0 kts 165°
2026-04-30 18:16 55.97936 37.42021 644 ft 5 kts 165°
2026-04-30 18:17 55.97880 37.42047 639 ft 11 kts 165°
2026-04-30 18:17 55.97784 37.42093 639 ft 17 kts 165°
2026-04-30 18:17 55.97713 37.42359 641 ft 19 kts 73°
2026-04-30 18:18 55.97748 37.42599 647 ft 22 kts 76°
2026-04-30 18:18 55.97755 37.42776 643 ft 13 kts 124°
2026-04-30 18:18 55.97699 37.42809 641 ft 0 kts 168°
2026-04-30 18:19 55.97665 37.42821 638 ft 14 kts 168°
2026-04-30 18:19 55.97589 37.42756 641 ft 11 kts 258°
2026-04-30 18:19 55.97584 37.42710 642 ft 0 kts 258°
2026-04-30 18:20 55.97570 37.42581 640 ft 39 kts 259°
2026-04-30 18:20 55.97437 37.41687 636 ft 108 kts 255°
2026-04-30 18:20 55.97198 37.40058 643 ft 161 kts 256°
2026-04-30 18:20 55.96909 37.38078 1233 ft 161 kts 256°
2026-04-30 18:21 55.96618 37.36161 1973 ft 162 kts 256°
2026-04-30 18:21 55.96302 37.34136 2416 ft 180 kts 255°
2026-04-30 18:21 55.95925 37.31837 2710 ft 208 kts 254°
2026-04-30 18:21 55.95488 37.29207 3131 ft 233 kts 255°
2026-04-30 18:22 55.95024 37.26304 3712 ft 251 kts 255°
2026-04-30 18:22 55.94064 37.20209 4445 ft 255 kts 255°
2026-04-30 18:22 55.93580 37.17149 5046 ft 258 kts 255°
2026-04-30 18:23 55.93094 37.14085 5626 ft 261 kts 256°
2026-04-30 18:23 55.92600 37.10956 6220 ft 264 kts 256°
2026-04-30 18:23 55.92094 37.07748 6816 ft 267 kts 256°
2026-04-30 18:23 55.91814 37.04536 7377 ft 267 kts 273°
2026-04-30 18:24 55.92726 36.99309 8373 ft 267 kts 306°
2026-04-30 18:24 55.93985 36.96956 8951 ft 268 kts 326°
2026-04-30 18:24 55.95670 36.95570 9676 ft 269 kts 348°
2026-04-30 18:25 55.97539 36.95522 10411 ft 274 kts 12°
2026-04-30 18:25 56.00621 36.99576 11821 ft 290 kts 50°
2026-04-30 18:25 56.01907 37.02422 12555 ft 297 kts 50°
2026-04-30 18:26 56.04538 37.08283 14063 ft 307 kts 50°
2026-04-30 18:26 56.05889 37.11286 14742 ft 311 kts 49°
2026-04-30 18:26 56.07256 37.14325 15443 ft 314 kts 50°
2026-04-30 18:27 56.08722 37.21693 16879 ft 328 kts 88°
2026-04-30 18:27 56.08619 37.25795 17651 ft 330 kts 90°
2026-04-30 18:28 56.08360 37.33979 19085 ft 332 kts 89°
2026-04-30 18:28 56.08229 37.38101 19766 ft 331 kts 89°
2026-04-30 18:28 56.07977 37.46318 21176 ft 330 kts 88°
2026-04-30 18:29 56.07853 37.50409 21916 ft 328 kts 88°
2026-04-30 18:29 56.07469 37.62508 24020 ft 325 kts 87°
2026-04-30 18:30 56.07210 37.70924 24217 ft 355 kts 88°
2026-04-30 18:30 56.06919 37.80205 24218 ft 390 kts 88°
2026-04-30 18:31 56.06756 37.85130 24218 ft 401 kts 89°
2026-04-30 18:31 56.06396 37.95159 24208 ft 404 kts 89°
2026-04-30 18:32 56.06029 38.05207 24375 ft 403 kts 89°
2026-04-30 18:32 56.05848 38.10207 24861 ft 403 kts 89°
2026-04-30 18:32 56.05483 38.20209 25859 ft 403 kts 89°
2026-04-30 18:33 56.05299 38.25210 26372 ft 402 kts 89°
2026-04-30 18:33 56.04934 38.35106 27412 ft 400 kts 89°
2026-04-30 18:33 56.04749 38.40065 27944 ft 399 kts 89°
2026-04-30 18:34 56.04560 38.45061 28192 ft 406 kts 89°
2026-04-30 18:34 56.04158 38.55262 28785 ft 415 kts 90°
2026-04-30 18:34 56.03949 38.60440 29118 ft 419 kts 91°
2026-04-30 18:35 56.03736 38.65689 29218 ft 427 kts 91°
2026-04-30 18:35 56.03295 38.76464 29471 ft 440 kts 91°
2026-04-30 18:36 56.02842 38.87436 29965 ft 445 kts 91°
2026-04-30 18:36 56.02608 38.92978 30229 ft 447 kts 91°
2026-04-30 18:36 56.02126 39.04110 30616 ft 451 kts 91°
2026-04-30 18:37 56.01881 39.09705 30788 ft 453 kts 91°
2026-04-30 18:37 56.01632 39.15336 30951 ft 455 kts 91°
2026-04-30 18:37 56.01380 39.20984 31104 ft 457 kts 91°
2026-04-30 18:37 56.01127 39.26577 31259 ft 458 kts 92°
2026-04-30 18:38 56.00866 39.32266 31384 ft 461 kts 92°
2026-04-30 18:38 56.00601 39.38007 31508 ft 463 kts 92°
2026-04-30 18:38 56.00333 39.43740 31632 ft 464 kts 92°
2026-04-30 18:38 56.00056 39.49497 31756 ft 465 kts 92°
2026-04-30 18:39 55.99776 39.55273 31883 ft 467 kts 92°
2026-04-30 18:39 55.99667 39.61053 32014 ft 465 kts 85°
2026-04-30 18:39 56.00068 39.66778 32141 ft 464 kts 76°
2026-04-30 18:39 56.00969 39.72296 32268 ft 462 kts 67°
2026-04-30 18:40 56.02163 39.77623 32393 ft 463 kts 70°
2026-04-30 18:40 56.02887 39.83244 32519 ft 466 kts 81°
2026-04-30 18:40 56.03048 39.89060 32647 ft 468 kts 88°
2026-04-30 18:40 56.03083 39.94816 32775 ft 468 kts 87°
2026-04-30 18:41 56.03142 40.00639 32905 ft 469 kts 87°
2026-04-30 18:41 56.03222 40.06459 33044 ft 469 kts 87°
2026-04-30 18:41 56.03315 40.12303 33175 ft 470 kts 87°
2026-04-30 18:41 56.03407 40.18151 33305 ft 471 kts 87°
2026-04-30 18:42 56.03491 40.23996 33436 ft 471 kts 87°
2026-04-30 18:42 56.03627 40.35736 33707 ft 472 kts 88°
2026-04-30 18:42 56.03682 40.41617 33838 ft 473 kts 88°
2026-04-30 18:45 56.04150 41.00619 35022 ft 477 kts 89°
2026-04-30 18:45 56.04177 41.06640 35139 ft 478 kts 89°
2026-04-30 18:45 56.04201 41.12518 35250 ft 478 kts 89°
2026-04-30 18:46 56.04223 41.18490 35368 ft 478 kts 89°
2026-04-30 18:46 56.04244 41.24442 35478 ft 478 kts 89°
2026-04-30 18:46 56.04268 41.30321 35596 ft 478 kts 89°
2026-04-30 18:46 56.04292 41.36336 35715 ft 478 kts 89°
2026-04-30 18:47 56.04310 41.42281 35825 ft 478 kts 89°
2026-04-30 18:47 56.04319 41.48153 35949 ft 477 kts 89°
2026-04-30 18:47 56.04325 41.54096 36068 ft 477 kts 89°
2026-04-30 18:47 56.04328 41.60022 36182 ft 477 kts 89°
2026-04-30 18:48 56.04328 41.65966 36304 ft 476 kts 89°
2026-04-30 18:48 56.04325 41.71878 36424 ft 476 kts 89°
2026-04-30 18:48 56.04321 41.77806 36543 ft 476 kts 89°
2026-04-30 18:48 56.04318 41.83717 36667 ft 475 kts 90°
2026-04-30 18:49 56.04312 41.89624 36784 ft 475 kts 90°
2026-04-30 18:49 56.04303 41.95528 36907 ft 474 kts 90°
2026-04-30 18:49 56.04289 42.01418 37039 ft 473 kts 90°
2026-04-30 18:49 56.04271 42.07296 37166 ft 473 kts 90°
2026-04-30 18:50 56.04248 42.13194 37193 ft 475 kts 90°
2026-04-30 18:50 56.04195 42.25044 37185 ft 478 kts 90°
2026-04-30 18:51 56.04132 42.36976 37185 ft 481 kts 90°
2026-04-30 18:51 56.04056 42.48880 37185 ft 483 kts 90°
2026-04-30 18:52 56.03963 42.60974 37181 ft 484 kts 91°
2026-04-30 18:52 56.03818 42.72951 37175 ft 485 kts 91°
2026-04-30 18:53 56.03644 42.85040 37172 ft 486 kts 91°
2026-04-30 18:53 56.03464 42.97119 37163 ft 486 kts 91°
2026-04-30 18:54 56.03275 43.09230 37163 ft 486 kts 91°
2026-04-30 18:54 56.03079 43.21311 37165 ft 487 kts 92°
2026-04-30 18:55 56.02918 43.33335 37161 ft 487 kts 87°
2026-04-30 18:55 56.04082 43.51390 37164 ft 487 kts 83°
2026-04-30 18:56 56.05295 43.69436 37164 ft 487 kts 83°
2026-04-30 18:57 56.06477 43.87496 37164 ft 487 kts 83°
2026-04-30 18:57 56.07254 43.99558 37155 ft 488 kts 84°
2026-04-30 18:58 56.08393 44.17674 37149 ft 488 kts 84°
2026-04-30 18:59 56.09502 44.35728 37150 ft 488 kts 84°
2026-04-30 19:00 56.10956 44.59952 37149 ft 489 kts 84°
2026-04-30 19:01 56.10911 44.84263 37143 ft 489 kts 93°
2026-04-30 19:02 56.10527 45.02535 37145 ft 489 kts 93°
2026-04-30 19:03 56.09953 45.26833 37151 ft 489 kts 93°
2026-04-30 19:04 56.09351 45.51224 37158 ft 490 kts 94°
2026-04-30 19:05 56.08694 45.75619 37149 ft 491 kts 94°
2026-04-30 19:06 56.07997 45.99978 37158 ft 491 kts 94°
2026-04-30 19:06 56.07436 46.18296 37162 ft 491 kts 95°
2026-04-30 19:07 56.06852 46.36646 37145 ft 492 kts 95°
2026-04-30 19:08 56.04904 46.58583 37157 ft 487 kts 113°
2026-04-30 19:09 56.01265 46.75551 37162 ft 487 kts 113°
2026-04-30 19:09 55.98446 46.88702 37163 ft 487 kts 113°
2026-04-30 19:10 55.93949 47.09373 37149 ft 488 kts 114°
2026-04-30 19:11 55.90244 47.26290 37162 ft 488 kts 114°
2026-04-30 19:12 55.87767 47.37555 37165 ft 488 kts 114°
2026-04-30 19:12 55.85281 47.48789 37167 ft 487 kts 114°
2026-04-30 19:13 55.80290 47.71120 37165 ft 486 kts 114°
2026-04-30 19:14 55.77783 47.82278 37170 ft 486 kts 114°
2026-04-30 19:14 55.75262 47.93412 37167 ft 485 kts 115°
2026-04-30 19:15 55.72725 48.04520 37142 ft 485 kts 115°
2026-04-30 19:15 55.68912 48.21161 37157 ft 485 kts 115°
2026-04-30 19:16 55.66364 48.32228 37156 ft 485 kts 115°
2026-04-30 19:17 55.62532 48.48710 37156 ft 484 kts 115°
2026-04-30 19:17 55.58685 48.65241 37135 ft 484 kts 116°
2026-04-30 19:18 55.54805 48.81747 37146 ft 485 kts 116°
2026-04-30 19:19 55.52221 48.92650 37144 ft 484 kts 116°
2026-04-30 19:19 55.50937 48.98064 37120 ft 472 kts 117°
2026-04-30 19:19 55.48417 49.08620 37123 ft 464 kts 117°
2026-04-30 19:20 55.45907 49.19071 37129 ft 461 kts 117°
2026-04-30 19:21 55.42143 49.34652 37125 ft 460 kts 118°
2026-04-30 19:22 55.37132 49.55292 37126 ft 460 kts 118°
2026-04-30 19:23 55.29511 49.86233 37115 ft 460 kts 118°
2026-04-30 19:24 55.25686 50.01668 37127 ft 460 kts 118°
2026-04-30 19:25 55.19251 50.27303 37129 ft 459 kts 119°
2026-04-30 19:26 55.14080 50.47674 37133 ft 459 kts 119°
2026-04-30 19:27 55.10172 50.62965 37131 ft 459 kts 119°
2026-04-30 19:28 55.06248 50.78217 37121 ft 458 kts 120°
2026-04-30 19:29 55.01781 50.99065 37129 ft 461 kts 115°
2026-04-30 19:30 54.97544 51.20178 37125 ft 461 kts 115°
2026-04-30 19:31 54.93297 51.41155 37124 ft 460 kts 115°
2026-04-30 19:31 54.90071 51.56899 37130 ft 460 kts 115°
2026-04-30 19:32 54.87917 51.67362 37132 ft 460 kts 115°
2026-04-30 19:32 54.85763 51.77806 37135 ft 460 kts 115°
2026-04-30 19:33 54.83598 51.88237 37119 ft 459 kts 116°
2026-04-30 19:33 54.81412 51.98658 37135 ft 459 kts 116°
2026-04-30 19:34 54.79221 52.09048 37134 ft 459 kts 116°
2026-04-30 19:35 54.75945 52.24551 37123 ft 458 kts 116°
2026-04-30 19:35 54.73739 52.34907 37132 ft 458 kts 116°
2026-04-30 19:36 54.71523 52.45246 37111 ft 458 kts 116°
2026-04-30 19:36 54.68212 52.60638 37127 ft 457 kts 116°
2026-04-30 19:37 54.65986 52.70905 37139 ft 457 kts 116°
2026-04-30 19:37 54.63815 52.81243 37130 ft 461 kts 111°
2026-04-30 19:38 54.62175 52.91954 37126 ft 461 kts 111°
2026-04-30 19:38 54.60525 53.02656 37106 ft 461 kts 111°
2026-04-30 19:39 54.58860 53.13332 37092 ft 461 kts 111°
2026-04-30 19:39 54.57190 53.24003 37102 ft 461 kts 111°